Stations météo

réclame
Mon MeteoGroup
Valencia/Manises, Espagne (8284): Température de l'air & dewpoint: 17.07.2018 17:00:00 - 23.07.2018 17:00:00 (CEST)Valencia/Manises, Espagne (8284): Vitesse du vent: 17.07.2018 17:00:00 - 23.07.2018 17:00:00 (CEST)Valencia/Manises, Espagne (8284): Direction du vent: 17.07.2018 17:00:00 - 23.07.2018 17:00:00 (CEST)Valencia/Manises, Espagne (8284): reduced air pressure: 17.07.2018 17:00:00 - 23.07.2018 17:00:00 (CEST)Valencia/Manises, Espagne (8284): visibility: 17.07.2018 17:00:00 - 23.07.2018 17:00:00 (CEST)
Date & Time tt [°C] td [°C] ff [km/h] ff [knt] dd ppp [hPa] vv [km]
23.07.2018 17:00:00 30,2 18,4 22 12 E 1013,9 35
23.07.2018 16:00:00 30,4 17,6 26 14 ESE 1014,4 -
23.07.2018 15:00:00 30,3 17,7 24 13 ESE 1014,8 -
23.07.2018 14:00:00 30,1 19,1 22 12 ESE 1015,4 30
23.07.2018 13:00:00 29,9 19,6 16 9 SE 1015,8 -
23.07.2018 12:00:00 30,4 18,7 9 5 SE 1016,1 -
23.07.2018 11:00:00 29,3 17,4 5 3 SE 1016,5 30
23.07.2018 10:00:00 27,5 17,1 4 2 W 1016,8 -
23.07.2018 09:00:00 24,5 16,2 4 2 WNW 1016,9 -
23.07.2018 08:00:00 22,3 16,6 8 4 W 1016,9 25
23.07.2018 07:00:00 20,8 16,4 5 3 W 1016,6 -
23.07.2018 06:00:00 21,0 16,8 8 4 WNW 1016,4 -
23.07.2018 05:00:00 21,5 16,7 8 4 W 1016,6 25
23.07.2018 04:00:00 21,8 16,5 8 4 NW 1016,6 -
23.07.2018 03:00:00 21,8 17,0 8 4 W 1016,9 -
23.07.2018 02:00:00 22,5 16,8 8 4 WNW 1017,1 25
23.07.2018 01:00:00 23,0 16,8 8 4 WNW 1017,1 -
23.07.2018 00:00:00 23,7 17,2 8 4 NE 1016,8 -
22.07.2018 23:00:00 23,8 17,5 11 6 E 1016,7 30
22.07.2018 22:00:00 24,3 17,5 8 4 ESE 1015,6 -
22.07.2018 21:00:00 25,2 16,6 13 7 ESE 1014,8 -
22.07.2018 20:00:00 26,4 16,6 13 7 ESE 1014,3 30
22.07.2018 19:00:00 27,4 15,7 15 8 ESE 1014,2 -
22.07.2018 18:00:00 28,1 15,3 15 8 SSE 1014,3 -
22.07.2018 17:00:00 27,5 15,6 15 8 E 1014,6 30
22.07.2018 16:00:00 26,2 15,6 26 14 E 1015,4 -
22.07.2018 15:00:00 27,2 15,7 28 15 E 1015,2 -
22.07.2018 14:00:00 27,7 15,4 18 10 E 1015,3 30
22.07.2018 13:00:00 27,0 15,8 15 8 NE 1015,5 -
22.07.2018 12:00:00 24,2 16,3 15 8 NE 1015,8 -
22.07.2018 11:00:00 24,5 17,5 16 9 ENE 1014,7 30
22.07.2018 10:00:00 23,6 15,1 18 10 ENE 1014,9 -
22.07.2018 09:00:00 23,3 16,4 - - - 1015,0 -
22.07.2018 08:00:00 24,4 14,8 21 11 NE 1014,5 30
22.07.2018 07:00:00 24,6 16,1 16 9 ENE 1013,9 -
22.07.2018 06:00:00 24,7 17,9 5 3 NE 1013,4 -
22.07.2018 05:00:00 24,8 18,0 9 5 NE 1013,2 15
22.07.2018 04:00:00 25,2 17,9 9 5 NNE 1013,6 -
22.07.2018 03:00:00 25,1 18,7 15 8 NNE 1014,0 -
22.07.2018 02:00:00 24,7 20,2 18 10 ENE 1014,1 12
22.07.2018 01:00:00 25,2 20,8 15 8 ENE 1014,5 -
22.07.2018 00:00:00 25,2 20,9 21 11 NE 1014,3 -
21.07.2018 23:00:00 25,4 21,3 18 10 ENE 1014,2 11
21.07.2018 22:00:00 25,5 21,0 21 11 NE 1013,4 -
21.07.2018 21:00:00 26,0 20,6 18 10 ENE 1012,9 -
21.07.2018 20:00:00 26,8 20,6 21 11 E 1012,4 30
21.07.2018 19:00:00 27,2 20,7 22 12 ENE 1012,0 -
21.07.2018 18:00:00 28,0 19,7 21 11 E 1012,2 -
21.07.2018 17:00:00 28,3 18,6 22 12 E 1012,3 25
21.07.2018 16:00:00 28,9 18,1 18 10 E 1012,5 -
21.07.2018 15:00:00 29,4 17,6 18 10 E 1012,8 -
21.07.2018 14:00:00 29,2 16,0 21 11 ENE 1013,5 25
21.07.2018 13:00:00 29,2 15,3 16 9 E 1014,2 -
21.07.2018 12:00:00 28,6 17,1 15 8 E 1014,4 -
21.07.2018 11:00:00 28,3 16,2 5 3 E 1014,3 30
21.07.2018 10:00:00 26,5 18,1 11 6 ENE 1014,4 -
21.07.2018 09:00:00 24,7 14,2 13 7 NNW 1014,2 -
21.07.2018 08:00:00 23,7 18,6 8 4 WNW 1013,5 15
21.07.2018 07:00:00 22,5 20,2 8 4 WNW 1012,8 -
21.07.2018 06:00:00 22,6 20,3 8 4 NW 1012,5 -
21.07.2018 05:00:00 22,8 20,1 8 4 W 1012,4 11
21.07.2018 04:00:00 23,5 20,6 8 4 NW 1012,5 -
21.07.2018 03:00:00 24,7 20,8 0 0 N 1012,8 -
21.07.2018 02:00:00 25,0 20,9 4 2 NNE 1013,0 11
21.07.2018 01:00:00 25,2 21,3 9 5 ENE 1012,9 -
21.07.2018 00:00:00 25,2 21,3 9 5 ENE 1012,4 -
20.07.2018 23:00:00 25,3 21,2 11 6 ENE 1012,0 11
20.07.2018 22:00:00 25,7 21,1 11 6 E 1011,1 -
20.07.2018 21:00:00 26,8 20,2 13 7 E 1010,3 -
20.07.2018 20:00:00 28,3 20,3 11 6 E 1009,8 30
20.07.2018 19:00:00 28,8 20,0 15 8 E 1010,0 -
20.07.2018 18:00:00 29,5 19,5 18 10 E 1010,3 -
20.07.2018 17:00:00 29,9 19,0 22 12 E 1010,8 30
20.07.2018 16:00:00 30,4 18,3 18 10 E 1011,5 -
20.07.2018 15:00:00 29,7 19,3 18 10 E 1011,8 -
20.07.2018 14:00:00 29,6 19,3 24 13 ESE 1012,6 30
20.07.2018 13:00:00 30,8 18,9 9 5 ESE 1012,5 -
20.07.2018 12:00:00 29,2 18,6 5 3 E 1013,1 -
20.07.2018 11:00:00 28,4 18,8 5 3 E 1013,4 30
20.07.2018 10:00:00 26,5 19,1 4 2 ESE 1013,8 -
20.07.2018 09:00:00 24,3 18,0 4 2 WNW 1013,8 -
20.07.2018 08:00:00 22,2 18,0 9 5 NNW 1013,3 30
20.07.2018 07:00:00 21,2 18,6 8 4 NW 1013,1 -
20.07.2018 06:00:00 21,7 18,9 8 4 WNW 1012,9 -
20.07.2018 05:00:00 22,2 19,4 8 4 WNW 1012,9 25
20.07.2018 04:00:00 22,9 19,3 9 5 NNW 1013,2 -
20.07.2018 03:00:00 23,8 19,5 11 6 NNW 1013,5 -
20.07.2018 02:00:00 24,5 20,0 8 4 N 1014,0 25
20.07.2018 01:00:00 24,7 20,0 9 5 NE 1014,6 -
20.07.2018 00:00:00 25,1 19,9 11 6 NE 1014,8 -
19.07.2018 23:00:00 25,2 20,2 13 7 NE 1014,3 25
19.07.2018 22:00:00 25,5 20,7 16 9 NE 1013,8 -
19.07.2018 21:00:00 26,3 20,8 15 8 ENE 1013,4 -
19.07.2018 20:00:00 28,0 20,5 16 9 E 1012,9 25
19.07.2018 19:00:00 28,5 18,6 21 11 ESE 1012,9 -
19.07.2018 18:00:00 29,6 19,4 21 11 ESE 1012,9 -
19.07.2018 17:00:00 29,8 20,4 22 12 ESE 1013,2 30
19.07.2018 16:00:00 30,4 20,5 18 10 ESE 1013,4 -
19.07.2018 15:00:00 31,6 17,4 16 9 E 1013,7 -
19.07.2018 14:00:00 30,7 17,8 16 9 ENE 1014,4 30
19.07.2018 13:00:00 30,1 17,9 15 8 E 1014,7 -
19.07.2018 12:00:00 29,9 18,4 13 7 E 1015,1 -
19.07.2018 11:00:00 29,1 17,9 11 6 ESE 1014,9 30
19.07.2018 10:00:00 27,1 17,6 4 2 NW 1015,2 -
19.07.2018 09:00:00 24,8 16,2 8 4 NW 1015,3 -
19.07.2018 08:00:00 22,5 16,5 8 4 NW 1015,0 25
19.07.2018 07:00:00 21,2 17,6 4 2 W 1014,6 -
19.07.2018 06:00:00 21,5 18,5 8 4 WNW 1014,6 -
19.07.2018 05:00:00 22,0 18,0 8 4 NW 1014,5 25
19.07.2018 04:00:00 22,9 19,5 9 5 NW 1014,6 -
19.07.2018 03:00:00 24,7 20,8 4 2 NE 1014,8 -
19.07.2018 02:00:00 24,8 20,7 8 4 E 1015,0 25
19.07.2018 01:00:00 24,9 20,6 11 6 E 1015,1 -
19.07.2018 00:00:00 25,3 20,8 11 6 NE 1014,9 -
18.07.2018 23:00:00 25,6 21,3 9 5 NNE 1014,6 25
18.07.2018 22:00:00 26,2 20,8 9 5 ENE 1013,9 -
18.07.2018 21:00:00 27,1 19,4 11 6 ESE 1013,6 -
18.07.2018 20:00:00 28,2 19,3 15 8 SE 1013,3 40
18.07.2018 19:00:00 28,6 18,1 16 9 SE 1013,4 -
18.07.2018 18:00:00 30,2 14,3 22 12 SE 1013,4 -
18.07.2018 17:00:00 31,1 12,7 22 12 ESE 1013,6 40
18.07.2018 16:00:00 31,5 14,4 24 13 ESE 1014,1 -
18.07.2018 15:00:00 31,3 13,6 22 12 E 1014,4 -
18.07.2018 14:00:00 30,8 13,0 18 10 ESE 1015,1 30
18.07.2018 13:00:00 30,1 14,0 16 9 SE 1015,6 -
18.07.2018 12:00:00 30,4 15,3 8 4 SSE 1015,9 -
18.07.2018 11:00:00 29,5 15,9 4 2 SSW 1016,3 30
18.07.2018 10:00:00 26,8 17,0 5 3 NW 1016,1 -
18.07.2018 09:00:00 24,1 14,5 13 7 NW 1016,1 -
18.07.2018 08:00:00 22,2 15,9 15 8 NW 1015,6 20
18.07.2018 07:00:00 21,5 16,9 15 8 NW 1015,8 -
18.07.2018 06:00:00 21,7 17,3 13 7 NW 1015,4 -
18.07.2018 05:00:00 21,8 18,0 8 4 NW 1015,5 14
18.07.2018 04:00:00 22,3 18,7 9 5 NW 1015,9 -
18.07.2018 03:00:00 22,7 19,1 11 6 NW 1015,9 -
18.07.2018 02:00:00 23,6 19,1 5 3 NW 1016,0 16
18.07.2018 01:00:00 24,4 19,7 8 4 N 1016,3 -
18.07.2018 00:00:00 24,5 20,6 9 5 NE 1016,2 -
17.07.2018 23:00:00 24,9 21,0 15 8 ENE 1016,4 18
17.07.2018 22:00:00 25,2 20,9 15 8 ENE 1015,9 -
17.07.2018 21:00:00 26,1 20,2 16 9 ENE 1015,5 -
17.07.2018 20:00:00 27,8 19,1 15 8 E 1015,4 25
17.07.2018 19:00:00 28,3 18,7 16 9 ESE 1015,3 -
17.07.2018 18:00:00 29,2 15,3 22 12 ESE 1015,6 -
17.07.2018 17:00:00 29,5 14,5 21 11 ESE 1016,1 35

tt = Température de l'air
td = dewpoint
ff = Vitesse du vent
dd = Direction du vent
ppp = reduced air pressure
vv = visibility

stations d'obs. à proximité